Weather History for Fort Meade, MD

Change the Weather History Date:

Monday, April 1, 2013

  Actual Average (KBWI) Record (KBWI)
Temperature  
Mean Temperature 49 °F 49 °F  
Max Temperature 66 °F 59 °F 88 °F (1978)
Min Temperature 32 °F 38 °F 15 °F (1923)
Degree Days  
Heating Degree Days 16 16  
Month to date heating degree days 16  
Since 1 July heating degree days 4277  
Cooling Degree Days 0 0  
Month to date cooling degree days 0  
Year to date cooling degree days 1  
Moisture  
Dew Point 32 °F    
Average Humidity 63    
Maximum Humidity 100    
Minimum Humidity 30    
Precipitation  
Precipitation 0.00 in 0.12 in 1.32 in (1931)
Month to date precipitation 0.12  
Year to date precipitation 9.97  
Snow  
Snow 0.00 in 0.00 in 9.40 in (1924)
Month to date snowfall 0.0  
Since 1 July snowfall 20.1  
Snow Depth -    
Sea Level Pressure  
Sea Level Pressure 29.82 in    
Wind  
Wind Speed 5 mph (WNW)    
Max Wind Speed 25 mph    
Max Gust Speed 34 mph    
Visibility 7 miles    
Events      
T = Trace of Precipitation, MM = Missing Value Source: NWS Daily Summary

Daily Weather History Graph

Daily Weather History Graph

Search for Another Location

Airport:

Trip Planner

Search our weather history database for the weather conditions in past years. The results will help you decide how hot, cold, wet, or windy it might be!

Date:

Astronomy

Apr. 01, 2013 Rise Set
Actual Time 6:51 AM EDT 7:30 PM EDT
Civil Twilight 6:24 AM EDT 7:57 PM EDT
Nautical Twilight 5:52 AM EDT 8:29 PM EDT
Astronomical Twilight 5:19 AM EDT 9:02 PM EDT
Moon 12:34 AM EDT (4/1) 10:37 AM EDT (4/1)
Length of Visible Light 13h 33m
Length of Day
12h 39m
Waning Gibbous, 67% of the Moon is Illuminated
Apr 1
Waning Gibbous
Apr 3
Last Quarter
Apr 10
New
Apr 18
First Quarter
Apr 25
Full

Hourly Weather History & Observations

Time (EDT) Temp. Windchill Dew Point Humidity Pressure Visibility Wind Dir Wind Speed Gust Speed Precip Events Conditions
12:15 AM 41.0 °F - 39.2 °F 93% 29.80 in 0.8 mi Calm Calm - N/A   Scattered Clouds
12:54 AM 41.0 °F - 37.4 °F 87% 29.79 in 2.0 mi Calm Calm - N/A   Clear
1:15 AM 39.2 °F - 37.4 °F 93% 29.80 in 2.5 mi Calm Calm - N/A   Clear
1:36 AM 39.2 °F - 37.4 °F 93% 29.80 in 2.0 mi Calm Calm - N/A   Clear
1:54 AM 37.4 °F - 35.6 °F 93% 29.80 in 2.5 mi Calm Calm - N/A   Clear
2:15 AM 37.4 °F - 35.6 °F 93% 29.79 in 1.0 mi Calm Calm - N/A   Unknown
2:36 AM 37.4 °F - 37.4 °F 100% 29.78 in 0.2 mi Calm Calm - N/A   Mostly Cloudy
2:54 AM 37.4 °F - 37.4 °F 100% 29.78 in 0.5 mi Calm Calm - N/A   Unknown
3:15 AM 37.4 °F - 35.6 °F 93% 29.79 in 1.2 mi Calm Calm - N/A   Scattered Clouds
3:36 AM 35.6 °F - 35.6 °F 100% 29.79 in 0.5 mi Calm Calm - N/A   Mostly Cloudy
3:54 AM 35.6 °F - 35.6 °F 100% 29.79 in 1.5 mi Calm Calm - N/A   Scattered Clouds
4:15 AM 35.6 °F - 35.6 °F 100% 29.79 in 2.0 mi Calm Calm - N/A   Clear
4:36 AM 33.8 °F - 33.8 °F 100% 29.79 in 1.2 mi Calm Calm - N/A   Unknown
4:54 AM 35.6 °F - 33.8 °F 93% 29.79 in 2.0 mi Calm Calm - N/A   Clear
5:15 AM 33.8 °F - 33.8 °F 100% 29.79 in 1.8 mi Calm Calm - N/A   Unknown
5:36 AM 33.8 °F - 32.0 °F 93% 29.79 in 2.0 mi Calm Calm - N/A   Clear
6:15 AM 33.8 °F - 32.0 °F 93% 29.77 in 1.5 mi Calm Calm - N/A   Unknown
6:36 AM 32.0 °F - 32.0 °F 100% 29.78 in 2.0 mi Calm Calm - N/A   Clear
6:54 AM 32.0 °F - 32.0 °F 100% 29.78 in 1.2 mi Calm Calm - N/A   Unknown
7:15 AM 32.0 °F - 32.0 °F 100% 29.78 in 1.0 mi Calm Calm - N/A   Unknown
7:36 AM 33.8 °F - 32.0 °F 93% 29.79 in 0.8 mi Calm Calm - N/A   Unknown
7:54 AM 33.8 °F - 33.8 °F 100% 29.79 in 1.5 mi Calm Calm - N/A   Unknown
8:15 AM 37.4 °F - 35.6 °F 93% 29.79 in 2.0 mi Calm Calm - N/A   Clear
8:36 AM 42.8 °F 40.1 °F 41.0 °F 93% 29.80 in 1.8 mi WSW 4.6 mph - N/A   Unknown
8:54 AM 46.4 °F 44.3 °F 44.6 °F 93% 29.79 in 5.0 mi SW 4.6 mph - N/A   Clear
9:15 AM 50.0 °F - 44.6 °F 82% 29.78 in 10.0 mi SW 5.8 mph - N/A   Clear
9:36 AM 53.6 °F - 42.8 °F 67% 29.79 in 10.0 mi SW 6.9 mph - N/A   Clear
9:57 AM 55.4 °F - 41.0 °F 58% 29.78 in 10.0 mi WSW 11.5 mph - N/A   Clear
10:15 AM 59.0 °F - 39.2 °F 48% 29.78 in 10.0 mi WSW 8.1 mph - N/A   Clear
10:36 AM 59.0 °F - 37.4 °F 45% 29.78 in 10.0 mi SW 8.1 mph - N/A   Clear
10:57 AM 60.8 °F - 37.4 °F 42% 29.77 in 10.0 mi SW 11.5 mph - N/A   Clear
11:15 AM 62.6 °F - 37.4 °F 39% 29.77 in 10.0 mi West 16.1 mph 24.2 mph N/A   Clear
11:36 AM 62.6 °F - 33.8 °F 34% 29.77 in 10.0 mi West 15.0 mph 25.3 mph N/A   Scattered Clouds
11:57 AM 64.4 °F - 35.6 °F 34% 29.77 in 10.0 mi West 13.8 mph 21.9 mph N/A   Scattered Clouds
12:15 PM 64.4 °F - 35.6 °F 34% 29.76 in 10.0 mi West 13.8 mph 24.2 mph N/A   Scattered Clouds
12:36 PM 62.6 °F - 35.6 °F 37% 29.75 in 10.0 mi WNW 15.0 mph 21.9 mph N/A   Mostly Cloudy
12:57 PM 64.4 °F - 35.6 °F 34% 29.75 in 10.0 mi West 17.3 mph 25.3 mph N/A   Mostly Cloudy
1:15 PM 66.2 °F - 33.8 °F 30% 29.74 in 10.0 mi West 25.3 mph 34.5 mph N/A   Scattered Clouds
1:36 PM 66.2 °F - 33.8 °F 30% 29.74 in 10.0 mi West 17.3 mph 25.3 mph N/A   Mostly Cloudy
1:57 PM 62.6 °F - 32.0 °F 32% 29.75 in 10.0 mi West 20.7 mph 26.5 mph N/A   Overcast
2:15 PM 60.8 °F - 32.0 °F 34% 29.75 in 10.0 mi West 13.8 mph 24.2 mph N/A   Overcast
2:36 PM 62.6 °F - 32.0 °F 32% 29.75 in 10.0 mi WNW 20.7 mph 29.9 mph N/A   Mostly Cloudy
2:57 PM 60.8 °F - 37.4 °F 42% 29.77 in 10.0 mi NW 13.8 mph 25.3 mph N/A   Scattered Clouds
3:15 PM 59.0 °F - 35.6 °F 42% 29.78 in 10.0 mi WNW 19.6 mph 24.2 mph N/A   Scattered Clouds
3:36 PM 55.4 °F - 35.6 °F 47% 29.79 in 10.0 mi NW 8.1 mph 24.2 mph N/A   Overcast
3:57 PM 55.4 °F - 33.8 °F 44% 29.80 in 10.0 mi WNW 17.3 mph 29.9 mph N/A   Mostly Cloudy
4:15 PM 57.2 °F - 33.8 °F 41% 29.80 in 10.0 mi WNW 20.7 mph 27.6 mph N/A   Scattered Clouds
4:36 PM 55.4 °F - 32.0 °F 41% 29.81 in 10.0 mi WNW 16.1 mph 24.2 mph N/A   Scattered Clouds
4:57 PM 53.6 °F - 32.0 °F 44% 29.81 in 10.0 mi WNW 17.3 mph 25.3 mph N/A   Scattered Clouds
5:15 PM 51.8 °F - 30.2 °F 44% 29.82 in 10.0 mi WNW 23.0 mph 32.2 mph N/A   Scattered Clouds
5:36 PM 53.6 °F - 30.2 °F 41% 29.83 in 10.0 mi NW 16.1 mph 24.2 mph N/A   Mostly Cloudy
5:57 PM 51.8 °F - 28.4 °F 41% 29.84 in 10.0 mi WNW 19.6 mph 29.9 mph N/A   Scattered Clouds
6:18 PM 51.8 °F - 26.6 °F 38% 29.85 in 10.0 mi WNW 20.7 mph 32.2 mph N/A   Clear
6:36 PM 50.0 °F - 28.4 °F 43% 29.87 in 10.0 mi NW 16.1 mph 24.2 mph N/A   Clear
6:57 PM 48.2 °F - 26.6 °F 43% 29.89 in 10.0 mi WNW 15.0 mph 24.2 mph N/A   Clear
7:18 PM 46.4 °F 39.2 °F 26.6 °F 46% 29.90 in 10.0 mi NW 18.4 mph 29.9 mph N/A   Clear
7:57 PM 44.6 °F 37.4 °F 23.0 °F 43% 29.90 in 10.0 mi WNW 16.1 mph 26.5 mph N/A   Clear
8:18 PM 44.6 °F 39.7 °F 23.0 °F 43% 29.93 in 10.0 mi WNW 9.2 mph - N/A   Clear
8:36 PM 44.6 °F 41.4 °F 23.0 °F 43% 29.94 in 10.0 mi NW 5.8 mph - N/A   Clear
8:57 PM 42.8 °F 38.0 °F 21.2 °F 42% 29.95 in 10.0 mi WNW 8.1 mph - N/A   Clear
9:18 PM 42.8 °F 38.0 °F 21.2 °F 42% 29.95 in 10.0 mi WNW 8.1 mph - N/A   Clear
9:36 PM 41.0 °F 35.8 °F 21.2 °F 45% 29.96 in 10.0 mi WNW 8.1 mph - N/A   Clear
9:57 PM 41.0 °F 34.3 °F 21.2 °F 45% 29.97 in 10.0 mi NW 11.5 mph 17.3 mph N/A   Clear
10:18 PM 39.2 °F 34.2 °F 21.2 °F 49% 29.98 in 10.0 mi WNW 6.9 mph - N/A   Clear
10:57 PM 39.2 °F 37.0 °F 19.4 °F 45% 29.99 in 10.0 mi NW 3.5 mph - N/A   Clear
11:18 PM 37.4 °F 33.8 °F 19.4 °F 48% 29.99 in 10.0 mi NW 4.6 mph - N/A   Clear
11:36 PM 37.4 °F 33.8 °F 19.4 °F 48% 30.00 in 10.0 mi NW 4.6 mph - N/A   Clear
11:57 PM 35.6 °F 31.7 °F 19.4 °F 52% 30.01 in 10.0 mi NW 4.6 mph - N/A   Clear